User: anonymous   Login
Location: Unspecified
(0.0000°N, 0.0000°E)
Time: 04:24:12
(UTC+00:00)
Language:

Tianhe-1 - Orbit

View from above orbital plane
View from above orbital plane
View from above satellite
View from above satellite

Ground track
Ground track

The orbit data is extracted from the following two-line orbital elements,

1 48274U 21035A   21138.06387159  .00008169  00000-0  82583-4 0  9994
2 48274  41.4710 107.6121 0018333 311.3237 134.9452 15.65321496  2978
Epoch (UTC): 18 May 2021 01:31:58
Eccentricity: 0.0018333
inclination: 41.4710°
perigee height: 360 km
apogee height: 384 km
right ascension of ascending node: 107.6121°
argument of perigee: 311.3237°
revolutions per day: 15.65321496
mean anomaly at epoch: 134.9452°
orbit number at epoch: 297

The dashed part of the orbit path shows where the satellite is in the earth's shadow,  

DLR